SCP
0 0 0 0 1 1 1 0 0 0 0 0 0 0 0 0 0 0 0 0 0 0 0 0 0 0 0 0 0 0 0 0 0 0 0 0 0 0 0 0 0 0 0
0 0 0 1 1 1 1 1 0 0 0 0 0 0 0 0 0 0 0 0 0 0 0 0 0 0 0 0 0 0 0 0 0 0 0 0 0 0 0 0 0 0 0
0 0 1 1 1 1 1 1 1 1 0 0 0 0 0 0 0 0 0 0 0 0 0 0 0 0 0 0 0 0 0 0 0 0 0 0 0 0 0 0 0 0 0
0 0 1 1 1 1 1 1 1 1 1 1 0 0 0 0 0 0 0 0 0 0 0 0 0 0 0 0 0 0 0 0 0 0 0 0 0 0 0 0 0 0 0
0 0 1 1 1 1 1 1 1 1 1 1 1 1 0 0 0 0 0 0 0 0 0 0 0 0 0 0 0 0 0 0 0 0 0 0 0 0 0 0 0 0 0
0 1 1 1 1 1 1 1 1 1 1 1 1 1 0 0 0 0 0 0 0 0 0 0 0 0 0 0 0 0 0 0 0 0 0 0 0 0 0 0 0 0 0
1 1 1 1 1 1 1 1 1 1 1 1 1 1 1 0 0 0 0 0 0 0 0 0 0 0 0 0 0 0 0 0 0 0 0 0 0 0 0 0 0 0 0
1 1 1 1 1 1 1 1 1 1 1 1 1 1 1 0 0 0 0 0 0 0 0 0 0 0 0 0 0 0 0 0 0 0 0 0 0 0 0 0 0 0 0
0 1 1 1 1 1 1 1 1 1 1 1 1 1 0 0 0 0 0 0 0 0 0 0 0 0 0 0 0 0 0 0 0 0 0 0 0 0 0 0 0 0 0
0 0 1 1 1 1 1 1 1 1 1 0 0 0 0 0 0 0 0 0 0 0 0 0 0 0 0 0 0 0 0 0 0 0 0 0 0 0 0 0 0 0 0
0 1 1 1 1 1 1 1 1 1 1 0 0 0 0 0 0 0 0 0 0 0 0 0 0 0 0 0 0 0 0 0 0 0 0 0 0 0 0 0 0 0 0
1 1 1 1 1 1 1 1 1 1 1 0 0 0 0 0 0 -0 -1 -0 0 0 0 0 0 0 0 0 0 0 0 0 0 0 0 0 0 0 0 0 0 0 0
1 1 1 1 1 1 1 1 1 1 1 0 0 0 0 0 0 -1 -1 -1 0 0 0 0 0 0 0 0 0 0 0 0 0 0 0 0 0 0 0 0 0 0 0
1 1 1 1 0 1 1 1 1 1 1 0 0 0 0 0 0 -0 -0 -0 0 0 0 0 0 0 0 0 0 0 0 0 0 0 0 0 0 0 0 0 0 0 0
1 1 1 1 1 1 1 1 1 1 1 1 0 0 0 0 0 0 0 0 0 0 0 0 0 0 0 0 0 0 0 0 0 0 0 0 0 0 0 0 0 0 0
1 1 1 1 1 1 1 1 1 1 1 1 1 0 0 0 0 0 0 0 0 0 0 0 0 0 0 0 0 0 0 0 0 0 0 0 0 0 0 0 0 0 0
1 1 1 1 1 1 1 1 1 1 1 1 1 1 1 1 1 1 1 0 0 0 0 0 0 0 0 0 0 0 0 0 0 0 0 0 0 0 0 0 0 0 0
1 1 1 1 1 1 1 1 1 1 1 1 1 1 1 1 1 1 1 0 1 1 1 1 1 1 0 0 0 0 0 0 0 0 0 0 0 0 0 0 0 0 0
1 1 1 1 1 1 1 1 1 1 1 1 1 1 1 1 1 1 1 1 1 1 1 1 1 1 1 0 0 0 0 0 0 0 0 0 0 0 0 0 0 0 0
1 1 1 1 1 1 1 1 1 1 1 1 1 1 1 1 1 1 1 1 1 1 1 1 1 1 1 0 0 0 0 0 0 0 0 0 0 0 0 0 0 0 0
1 1 1 1 1 1 1 1 1 1 1 1 1 1 1 1 1 1 1 1 1 1 1 1 1 1 1 0 0 0 0 0 0 0 0 0 0 0 0 0 0 0 0
1 1 1 1 1 1 1 1 1 1 1 1 1 1 1 1 1 1 1 1 1 1 1 1 1 1 1 0 0 0 0 0 0 0 0 0 0 0 0 0 0 0 0
1 1 1 1 1 1 1 1 1 1 1 1 1 1 0 1 1 1 1 1 1 1 1 1 1 1 1 0 0 0 0 0 0 0 0 0 0 0 0 0 0 0 0
1 1 1 1 1 1 1 1 1 1 1 0 0 0 0 0 0 1 1 1 1 1 1 1 1 1 1 0 0 0 0 0 0 0 0 0 0 0 0 0 0 0 0
1 1 1 1 1 1 1 1 1 1 0 0 0 0 1 0 0 1 1 1 1 1 1 1 1 1 1 0 0 0 0 0 0 0 0 0 0 0 0 0 0 0 0
1 1 1 1 1 1 1 1 1 1 0 0 0 1 1 1 1 1 0 0 1 1 1 1 1 1 1 0 0 0 0 0 0 0 0 0 0 0 0 0 0 0 0
Wind_Speed
9 9 9 10 9 8 8 7 6 5 4 3 3 2 2 1 1 1 2 3 2 2 2 2 2 2 2 2 3 3 3 2 3 4 3 3 3 2 1 2 2 2 2
8 9 9 9 9 8 8 7 7 6 5 3 3 3 3 2 2 1 2 3 3 3 3 3 2 2 2 2 3 3 3 1 2 3 3 2 2 2 2 1 2 2 2
13 12 10 9 9 9 9 8 7 7 6 5 3 2 2 2 1 1 1 1 2 2 2 3 2 2 3 3 3 3 4 2 1 1 3 3 2 0 2 1 1 2 1
12 12 11 11 11 9 8 7 7 7 6 5 5 4 4 2 2 2 1 1 2 2 2 2 2 2 2 2 2 2 2 3 2 1 1 2 4 3 1 1 1 1 1
13 13 12 12 10 10 8 7 7 6 6 5 6 4 3 3 2 2 2 1 1 1 2 2 2 2 2 2 2 2 2 2 2 1 1 1 1 2 3 1 1 1 0
12 11 10 9 8 9 8 7 7 6 6 6 5 5 5 4 4 3 3 1 1 1 1 2 2 2 2 2 2 2 2 2 2 1 2 2 2 2 2 2 2 1 1
12 12 11 11 10 10 9 8 8 6 6 7 6 6 6 6 5 4 4 3 1 1 1 1 1 1 2 2 2 2 2 2 2 2 1 2 2 2 3 3 2 1 1
10 12 13 12 11 12 11 9 9 7 6 6 6 5 5 4 3 4 3 3 3 2 2 2 2 2 2 2 2 1 2 1 2 2 2 1 2 2 3 3 4 2 0
11 12 12 12 12 12 11 10 9 7 6 6 6 5 5 5 4 4 3 3 2 2 2 2 2 2 2 2 2 1 1 1 1 2 2 1 1 2 2 3 4 4 3
10 11 11 11 10 11 10 9 9 8 7 7 6 6 5 4 5 4 4 3 3 2 2 2 2 2 1 1 2 1 1 1 0 1 1 1 1 1 1 3 2 3 4
10 10 9 9 10 9 10 9 9 7 7 6 6 5 5 5 4 4 4 4 3 3 3 3 2 2 1 1 2 1 1 1 0 0 1 1 1 1 1 2 2 2 3
9 9 8 8 9 10 10 10 9 8 7 6 5 5 5 5 5 5 4 4 4 3 3 3 2 2 2 1 2 2 1 1 1 1 1 1 1 2 1 2 2 1 2
7 7 8 8 9 9 9 9 9 8 7 6 6 5 5 5 5 5 4 4 4 4 3 3 3 2 2 2 2 2 2 2 1 1 2 1 2 2 1 2 2 1 2
7 7 8 8 8 8 9 9 9 8 8 7 6 6 5 6 5 5 4 4 4 4 4 3 3 3 2 2 2 2 2 2 1 1 2 2 3 2 2 2 2 2 2
6 6 7 7 7 7 7 8 8 8 8 8 7 7 5 4 4 4 4 4 4 4 4 3 3 2 2 2 3 2 3 2 2 1 1 1 2 3 3 3 3 3 3
6 6 6 7 7 8 8 7 7 8 8 8 8 7 6 6 5 5 4 4 4 3 3 3 3 2 2 4 5 4 3 3 2 1 1 0 2 2 3 4 5 6 5
6 6 7 7 8 8 8 9 8 7 8 8 7 7 6 6 6 6 5 5 4 3 3 3 3 2 3 4 5 5 3 3 2 2 1 1 1 2 2 2 3 3 5
5 5 5 5 6 6 7 7 7 8 8 7 6 6 6 6 5 5 5 4 3 3 3 3 3 3 3 4 5 5 3 2 2 3 3 2 2 2 3 2 1 2 3
6 4 5 5 6 6 7 7 7 7 7 7 7 6 7 6 5 5 5 4 4 3 3 3 3 3 3 4 4 4 2 2 2 2 3 3 3 4 5 3 2 2 2
5 5 5 5 6 5 6 8 7 6 6 7 6 6 6 6 6 6 5 4 4 4 3 3 3 3 3 4 5 5 2 2 2 1 2 4 4 5 5 4 4 3 3
5 6 6 5 4 5 6 7 6 5 5 5 5 5 5 5 5 5 4 3 3 3 2 2 2 2 3 3 4 5 3 3 3 2 2 2 4 5 5 5 4 5 4
6 6 6 4 3 5 7 6 5 4 4 5 5 4 4 4 4 5 4 4 4 3 2 2 1 1 2 2 4 5 5 4 4 3 3 3 4 4 4 4 4 4 2
6 5 6 5 3 3 5 6 4 4 5 5 4 4 3 3 4 4 4 3 3 3 3 2 2 2 1 2 4 5 5 5 3 2 3 3 3 3 3 4 5 3 2
5 5 6 6 3 2 3 4 4 4 5 5 4 4 4 3 3 3 3 3 3 3 3 3 3 2 2 2 2 2 2 3 2 2 2 2 2 2 3 3 3 3 3
4 5 5 6 4 3 3 3 4 5 5 4 4 3 3 3 3 2 2 3 3 5 5 4 4 4 4 5 6 4 3 3 3 2 0 0 1 1 2 2 2 2 2
5 5 5 4 4 4 3 2 3 5 5 4 3 3 3 3 3 3 1 2 1 2 5 5 5 4 5 5 6 7 6 5 5 4 2 2 3 3 4 3 3 3 3
Wind_Direction
175 168 163 158 151 148 150 153 152 156 144 129 128 128 138 139 133 149 144 146 143 132 130 135 136 136 130 133 126 121 109 102 113 96 68 43 46 69 96 115 121 135 142
169 168 166 162 162 162 161 159 160 163 162 157 154 156 154 159 159 156 145 160 157 158 152 146 146 136 130 126 122 123 120 126 134 120 107 61 15 14 43 76 116 125 118
175 174 172 169 166 169 171 169 169 168 168 159 137 118 91 73 83 119 159 178 160 153 145 146 142 138 141 151 151 142 138 151 191 154 141 148 187 289 358 27 89 119 126
178 177 175 172 174 175 175 171 170 168 170 159 149 149 151 157 182 174 175 165 150 154 148 138 142 140 139 149 165 151 151 149 179 231 150 149 150 149 145 346 355 102 130
180 178 178 175 173 170 172 175 168 171 172 163 156 152 151 163 159 141 145 154 136 138 135 136 139 137 140 154 146 137 146 155 165 177 145 101 91 123 142 179 276 356 316
176 174 172 164 164 166 165 166 165 173 171 162 159 159 160 158 149 155 160 172 170 111 125 137 139 142 143 157 165 159 152 156 156 159 151 155 155 169 153 165 182 197 271
175 171 169 168 167 167 168 169 167 174 173 167 170 171 170 165 166 170 170 167 164 176 196 166 158 157 170 174 167 160 172 170 166 173 178 179 182 163 150 143 156 167 229
176 174 174 174 172 173 171 169 171 174 175 173 176 175 173 168 171 175 169 169 175 190 186 171 166 163 165 170 155 157 186 173 181 191 184 184 196 165 158 157 151 144 217
175 176 175 176 174 173 173 171 171 173 180 182 176 175 174 172 173 174 167 167 176 180 175 168 165 168 165 163 153 149 176 162 184 197 194 195 201 175 168 161 160 156 170
171 174 175 177 175 173 170 167 170 177 180 181 182 181 177 173 169 163 168 173 181 178 161 157 161 162 160 148 139 150 156 131 196 187 167 184 182 171 168 168 169 159 158
173 173 173 175 170 165 166 169 174 174 179 183 181 173 172 171 165 168 175 174 168 165 167 166 157 147 141 140 134 149 148 142 159 116 136 165 161 161 169 158 152 146 141
167 163 164 167 168 169 169 171 174 177 181 179 174 175 170 164 169 177 176 167 163 166 169 160 153 156 150 144 148 157 142 142 154 154 125 154 135 141 153 142 150 160 151
152 153 159 164 171 172 172 173 174 176 174 167 168 168 169 167 176 183 175 165 164 166 162 153 159 166 160 153 162 155 145 149 157 151 151 158 124 137 143 146 152 157 141
155 159 161 166 171 172 171 171 172 173 171 167 169 170 179 179 180 178 174 171 165 164 164 165 172 175 169 170 172 152 138 130 128 137 150 160 156 168 165 153 154 143 127
151 162 166 166 164 165 166 168 169 168 169 165 169 177 180 178 177 173 171 169 164 171 169 168 178 182 176 188 174 161 150 144 134 116 134 157 156 159 162 148 153 144 140
160 164 168 165 168 167 167 165 165 166 158 163 175 179 174 172 176 180 171 164 168 170 163 171 182 193 203 187 177 169 164 163 161 173 210 200 151 157 158 156 157 158 159
163 170 173 172 173 173 167 166 166 161 161 167 174 179 176 179 186 183 171 171 176 172 171 183 177 189 207 185 177 175 162 164 177 184 192 211 192 171 163 170 165 185 190
154 171 173 172 171 164 161 162 159 159 164 169 175 176 175 179 178 168 169 176 174 177 185 191 186 194 218 196 182 175 166 169 187 191 192 194 216 201 177 169 167 211 224
161 163 162 148 144 152 156 151 155 161 166 173 178 178 171 169 170 170 174 177 172 182 186 180 182 193 217 195 183 169 159 175 204 208 197 189 202 215 190 173 189 233 269
137 132 122 116 129 146 142 143 151 158 173 179 178 176 169 168 172 178 178 171 168 182 180 184 187 189 198 187 177 172 170 188 216 243 237 214 208 209 195 186 187 216 243
123 119 116 116 131 138 135 137 146 165 173 165 162 162 164 172 172 169 170 161 163 169 178 179 186 189 196 193 184 178 176 194 202 219 239 244 221 213 209 199 203 217 220
115 116 115 113 121 131 134 136 154 167 148 139 142 152 161 167 161 159 167 164 162 167 178 167 183 217 202 190 205 193 197 197 195 216 224 230 225 225 220 214 226 220 198
122 120 121 114 109 122 134 141 159 143 134 132 141 146 146 148 149 158 170 171 174 180 191 182 193 217 227 227 223 209 206 208 205 223 217 222 226 225 230 234 225 206 193
129 123 122 122 125 126 125 139 143 137 130 137 146 146 141 141 144 152 165 176 187 187 188 191 200 206 210 221 217 220 217 213 219 242 251 251 240 237 248 242 228 214 206
120 123 130 137 143 134 119 130 140 137 133 142 151 151 152 152 150 149 167 187 204 198 192 200 194 192 218 228 208 194 204 204 203 171 159 240 244 245 252 250 243 229 215
118 121 125 132 135 130 125 130 142 144 140 145 156 157 149 147 149 143 93 17 263 219 208 203 197 214 220 212 204 208 209 199 170 154 197 221 225 227 230 233 238 231 227